Location: Étang Rond
(42.7927°N, 1.0661°E)
Time: 02:55:34
(UTC+00:00)

Cosmos 2100 Rocket - Visible Passes

Search period start: 19 February 2026 00:00
Search period end: 01 March 2026 00:00
Orbit: 955 x 1000 km, 82.9° (Epoch: 18 February)

Date Brightness Start Highest point End Pass type
(mag) Time Alt. Az. Time Alt. Az. Time Alt. Az.
19 Feb 5.8 04:30:54 10° SSE 04:36:24 32° E 04:41:53 10° NNE visible
19 Feb 4.4 06:15:43 10° SW 06:21:39 41° WNW 06:27:34 10° N visible
20 Feb 4.7 04:55:54 10° S 05:02:05 58° E 05:08:15 10° NNE visible
21 Feb 6.7 03:39:51 10° ESE 03:43:22 16° E 03:46:52 10° NE visible
21 Feb 4.0 05:21:35 10° S 05:27:57 81° W 05:34:17 10° N visible
21 Feb 7.0 18:04:52 10° NW 18:07:45 14° WNW 18:10:38 10° WSW visible
22 Feb 5.9 04:03:35 10° SE 04:08:50 28° E 04:14:04 10° NNE visible
22 Feb 4.3 05:47:55 10° SSW 05:53:58 46° WNW 06:00:01 10° N visible
23 Feb 4.9 04:28:25 10° SSE 04:34:30 51° E 04:40:33 10° NNE visible
24 Feb 6.8 03:13:01 10° ESE 03:15:51 13° ENE 03:18:42 10° NE visible
24 Feb 4.0 04:53:57 10° S 05:00:19 89° E 05:06:38 10° N visible
25 Feb 6.0 03:36:19 10° SE 03:41:17 25° E 03:46:14 10° NNE visible
25 Feb 4.1 05:20:09 10° SSW 05:26:18 52° WNW 05:32:26 10° N visible
26 Feb 5.0 04:00:58 10° SSE 04:06:54 45° E 04:12:49 10° NNE visible
26 Feb 4.8 05:47:03 10° SW 05:52:28 29° WNW 05:57:54 10° NNW visible
27 Feb 6.8 02:46:27 10° E 02:48:21 11° ENE 02:50:15 10° ENE visible
27 Feb 4.1 04:26:22 10° S 04:32:41 80° E 04:38:58 10° N visible
28 Feb 6.1 03:09:06 10° SE 03:13:45 22° E 03:18:22 10° NE visible
28 Feb 4.0 04:52:25 10° SSW 04:58:38 59° W 05:04:50 10° N visible
